SCP
0 0 0 0 0 0 0 0 0 0 0 0 0 0 0 0 0 0 0 0 0 0 0 0 0 0 0 0 0 0 0 0 0 0 0 0 0 0 0 0 0 0 0 0
0 0 0 0 0 0 0 0 0 0 0 0 0 0 0 1 0 0 0 0 0 0 0 0 0 0 0 0 0 0 0 0 0 0 -0 0 0 0 0 0 0 -0 0 0
0 0 0 0 0 0 0 0 0 0 0 0 0 0 0 1 0 0 0 0 0 0 -0 -0 -0 -0 -0 -0 0 0 0 0 0 0 -0 0 -0 -0 -0 -0 -0 -0 -0 0
0 0 0 0 0 0 0 0 0 0 0 0 0 0 0 1 0 0 0 0 0 0 0 0 0 -0 -0 0 0 0 0 0 0 0 0 0 0 0 -0 -0 0 0 0 0
0 0 0 0 0 0 0 0 0 0 0 0 1 1 1 1 0 0 0 0 0 -0 -0 -0 -0 -0 0 -0 0 0 0 0 0 0 0 0 0 0 0 0 0 0 0 0
0 0 0 0 0 0 0 0 0 0 0 0 1 0 0 1 1 0 0 0 0 0 0 0 0 0 0 0 0 0 0 0 0 0 0 0 0 0 0 0 0 0 0 0
0 0 0 0 0 0 1 0 0 1 0 1 0 0 0 1 0 0 0 0 0 0 0 0 0 0 0 0 0 0 0 0 0 0 0 0 0 0 0 0 0 0 0 0
0 0 0 0 0 0 0 0 1 1 0 1 0 1 1 0 0 0 0 0 0 0 0 0 0 0 0 0 0 0 0 0 0 0 0 0 0 0 0 0 0 0 0 0
0 0 0 0 0 0 0 1 1 1 0 0 1 1 0 0 0 0 0 0 0 0 0 0 0 0 0 0 0 0 0 0 0 0 0 0 0 0 0 0 0 0 0 0
0 0 0 0 0 0 0 1 0 0 0 0 1 0 0 0 0 0 0 0 0 0 0 0 0 0 0 0 0 0 0 0 0 0 0 0 0 0 0 0 0 0 0 0
0 0 0 0 0 0 0 0 0 0 0 0 0 0 0 0 0 0 0 0 0 0 0 0 0 0 0 0 0 0 0 0 0 0 0 0 0 0 0 0 0 0 0 0
0 0 0 0 0 0 0 1 0 0 0 0 0 0 0 0 0 0 0 0 0 0 0 0 0 0 0 0 0 0 0 0 0 0 0 0 0 0 0 0 0 0 0 0
0 0 0 0 0 0 1 1 0 0 0 0 0 0 0 0 0 0 0 0 0 0 0 0 0 0 0 0 0 0 0 0 0 0 0 0 0 0 0 0 0 0 0 0
0 0 0 0 0 0 0 0 0 0 0 0 0 0 0 0 0 0 0 0 0 0 0 0 0 0 0 -0 -0 0 0 0 0 0 0 0 0 -0 -0 0 0 0 0 0
0 0 0 0 0 0 0 0 0 0 0 0 0 0 0 0 0 0 0 0 0 0 0 0 0 0 0 0 0 0 0 0 0 0 0 0 0 0 0 0 0 0 0 0
0 0 0 0 0 0 0 0 0 0 0 0 0 0 0 0 0 0 0 0 0 0 0 0 0 0 0 0 0 0 0 0 0 0 0 0 0 0 0 0 0 0 0 0
0 0 0 0 0 0 0 0 0 0 0 0 0 0 0 0 0 0 0 0 0 0 0 0 0 0 0 0 0 0 0 0 0 0 0 0 0 0 0 0 0 0 0 0
0 0 0 0 0 0 0 0 0 0 0 0 0 0 0 0 0 0 0 0 0 0 0 0 0 0 0 0 0 0 0 0 0 0 0 0 0 0 0 0 0 0 0 0
0 0 0 0 0 0 0 0 0 0 0 0 0 0 0 0 0 0 0 0 0 0 0 0 0 0 0 0 0 0 0 0 0 0 0 0 0 0 0 0 0 0 0 0
0 0 0 0 0 0 0 0 0 0 0 0 0 0 0 0 0 0 0 0 0 0 0 0 0 0 0 0 0 0 0 0 0 0 0 0 0 0 0 0 0 0 0 0
0 0 0 0 0 0 0 0 0 0 0 0 0 0 0 0 0 0 0 0 0 0 0 0 0 0 0 0 0 0 0 0 0 0 0 0 0 0 0 0 0 0 0 0
0 0 0 0 0 0 0 0 0 0 0 0 0 0 0 0 0 0 0 0 0 0 0 0 0 0 0 0 0 0 0 0 0 0 0 0 0 0 0 0 0 0 0 0
0 0 0 0 0 0 0 0 0 0 0 0 0 0 0 0 0 0 0 0 0 0 0 0 0 0 0 0 0 0 0 0 0 0 0 0 0 0 0 0 0 0 0 0
0 0 0 0 0 0 0 0 0 0 0 0 0 0 0 0 0 0 0 0 0 0 0 0 0 0 0 0 0 0 0 0 0 0 0 0 0 0 0 0 0 0 0 0
0 0 0 0 0 0 0 0 0 0 0 0 0 0 -0 0 0 0 0 0 0 0 0 0 0 0 0 0 0 0 -0 -0 -0 -0 0 0 0 0 0 0 0 0 0 0
0 0 0 0 0 0 0 0 0 -0 -0 -0 -0 -0 -0 0 0 0 0 0 0 0 0 0 0 0 0 0 0 0 0 0 0 -0 0 0 0 0 0 0 0 0 0 0
0 0 0 -0 0 -0 -0 -0 -0 -0 -0 -0 0 0 -0 0 0 0 0 0 0 0 0 0 0 0 0 0 0 0 0 0 0 -0 0 0 0 0 0 0 0 0 0 0
Wind_Speed_500mb
9 8 2 6 9 15 13 10 13 14 17 14 21 24 21 24 28 27 31 35 34 32 30 30 31 24 14 1 18 28 33 37 51 50 26 18 19 4 7 20 27 23 19 17
6 10 8 8 7 11 11 7 10 8 15 5 12 28 25 34 38 40 37 38 41 41 39 43 42 42 36 25 13 27 49 50 37 25 33 51 19 18 15 38 37 32 40 39
10 5 8 5 12 10 8 5 11 9 9 4 6 10 22 36 46 58 53 49 44 37 39 42 38 37 36 28 33 31 22 15 6 8 15 13 33 47 59 46 42 36 31 29
8 3 7 10 10 9 8 7 9 13 11 12 10 16 23 23 37 46 47 43 38 33 29 31 35 34 31 24 22 16 7 11 18 16 18 17 43 63 55 54 54 45 35 32
5 6 10 5 8 10 12 13 10 11 1 5 19 20 14 24 32 40 31 32 23 22 33 37 38 51 36 43 31 35 19 19 21 25 30 10 18 23 28 31 32 30 29 26
5 6 12 15 3 9 5 9 15 19 15 19 24 6 4 32 32 28 29 25 26 31 33 33 40 46 32 36 28 29 18 13 15 16 5 11 17 18 23 28 29 27 27 28
7 9 14 10 2 10 11 14 14 28 28 39 11 5 7 32 32 35 31 28 28 28 30 31 29 28 27 29 24 19 8 7 9 5 10 16 19 21 24 27 29 30 32 31
4 2 12 2 3 13 9 1 3 18 31 40 24 7 26 36 38 31 32 28 27 27 23 26 21 16 15 13 9 4 5 6 6 7 13 20 23 25 30 33 34 35 37 35
14 10 7 12 6 10 8 5 3 15 28 37 27 18 38 41 35 28 27 28 25 30 30 25 21 13 10 8 4 2 4 8 9 12 15 20 24 27 30 30 31 32 33 35
6 5 9 12 9 9 8 4 5 7 25 32 29 29 41 39 40 37 34 33 32 24 29 24 19 12 2 3 5 10 15 20 23 24 24 24 23 24 24 24 27 30 33 37
9 13 16 17 18 10 5 4 4 13 28 34 28 35 36 38 38 34 29 28 31 27 22 15 9 4 7 12 19 25 26 22 20 20 21 24 26 22 20 20 26 31 36 38
9 7 8 19 16 22 20 19 18 21 32 32 29 31 34 36 32 31 34 33 27 20 11 5 7 11 17 19 19 18 17 18 23 27 29 31 35 35 25 25 25 23 26 32
15 28 32 24 17 31 28 27 25 20 22 28 30 32 39 36 37 34 30 28 19 12 7 6 9 10 11 12 13 11 13 19 25 29 31 35 38 43 47 41 36 23 23 29
22 21 14 16 11 24 31 27 27 21 22 23 31 36 39 40 39 34 26 18 11 5 3 1 3 9 15 19 18 17 18 21 28 32 34 37 34 38 40 42 46 46 31 32
22 16 34 27 13 16 25 29 31 31 28 31 36 41 42 44 35 26 18 12 7 7 7 5 5 3 12 19 23 24 22 25 29 33 35 36 39 38 37 40 43 41 44 41
42 29 23 27 26 29 33 32 32 32 32 40 44 38 34 23 20 21 18 16 10 12 15 9 5 5 8 16 21 23 23 24 29 35 37 38 40 42 41 40 41 42 39 39
39 21 26 35 41 41 39 35 32 31 45 43 40 32 27 24 19 16 11 4 12 20 21 17 11 11 15 18 21 24 26 28 32 37 39 37 35 38 37 40 44 49 55 57
25 29 37 35 47 46 46 40 35 35 39 37 36 31 25 20 14 16 9 5 14 18 18 10 10 19 25 29 29 30 31 35 40 45 45 44 42 43 46 49 52 59 64 69
20 11 11 18 40 42 44 43 40 34 35 38 32 24 17 19 14 16 8 10 18 18 11 17 22 28 26 21 25 29 35 40 44 46 45 45 45 48 52 53 54 59 65 69
10 4 10 22 22 37 34 34 32 32 32 32 28 21 14 20 22 16 8 13 15 15 14 19 23 27 31 35 39 43 47 45 42 46 41 42 43 42 46 49 52 56 61 61
10 7 3 8 24 26 29 30 34 36 34 23 14 13 20 19 14 10 10 9 7 12 13 16 24 33 45 52 52 52 57 52 42 39 41 43 41 42 46 42 44 49 50 58
4 9 16 19 24 27 31 31 25 23 23 20 15 11 10 9 7 6 10 13 14 19 22 22 26 44 50 46 47 46 40 35 36 35 42 35 36 41 34 35 39 41 48 47
5 4 8 11 13 15 20 16 19 20 21 18 11 5 4 5 10 13 17 19 18 20 22 28 37 48 40 40 44 45 42 37 33 32 33 34 32 27 29 34 32 39 44 46
9 15 6 3 3 5 7 9 15 23 19 14 4 1 5 9 12 18 18 20 23 26 23 30 41 46 40 38 42 37 26 23 23 28 34 29 19 18 25 30 31 37 44 47
20 14 10 7 8 6 5 10 21 27 10 13 10 6 10 12 15 13 23 26 23 23 26 30 46 49 37 38 32 23 13 15 19 25 12 13 15 20 27 33 35 37 41 44
18 20 14 9 7 6 16 15 15 15 18 8 6 6 8 10 12 15 17 23 24 26 31 29 36 42 27 32 32 22 14 15 17 22 18 14 16 24 30 34 37 36 37 38
17 13 15 14 12 8 13 16 13 11 8 5 3 7 15 20 22 23 27 28 26 26 25 26 28 35 31 29 28 22 15 29 23 20 18 14 15 21 27 29 33 31 31 32
Wind_Direction_500mb
265 270 247 224 205 176 181 195 174 251 202 260 210 212 161 144 143 124 113 108 105 104 106 105 93 80 63 59 215 205 198 168 112 81 64 114 80 36 284 289 284 280 276 280
243 330 298 245 212 170 178 156 286 331 273 271 232 185 153 144 139 132 127 119 113 111 108 95 93 89 86 86 132 176 157 153 129 72 6 19 291 294 290 288 297 271 272 277
254 263 314 307 219 214 163 151 153 205 239 170 252 209 167 151 149 146 143 136 127 116 102 100 98 102 87 75 105 126 140 148 246 288 356 243 210 203 242 280 282 278 271 270
213 292 209 237 283 231 146 174 231 281 279 214 199 174 187 186 170 157 148 139 132 119 127 122 123 122 112 139 144 136 102 95 104 106 128 209 249 240 260 265 265 269 273 272
159 208 289 131 199 176 172 245 205 232 219 167 143 142 172 183 174 157 151 148 149 129 124 110 113 86 104 117 102 100 129 109 97 90 78 142 208 228 245 257 263 271 277 276
139 179 220 241 110 79 85 271 206 193 192 168 151 184 167 162 155 151 139 123 118 120 108 109 92 93 111 96 121 120 133 118 71 57 25 258 255 256 261 267 273 278 282 288
178 216 282 239 245 142 147 241 185 211 213 180 190 177 168 151 143 137 132 116 107 98 96 89 89 97 109 119 139 143 129 63 59 29 299 288 289 288 285 285 291 291 291 293
85 163 273 2 148 177 231 178 239 237 221 188 191 138 150 157 148 142 134 124 112 105 102 111 114 127 140 163 158 104 51 40 18 314 293 291 293 293 291 289 288 288 291 293
177 221 272 303 267 297 275 11 322 218 209 205 197 190 174 162 161 151 145 140 136 138 150 139 145 168 158 148 105 7 344 320 305 304 290 284 284 285 285 284 286 287 288 290
25 267 258 281 292 334 156 143 46 221 194 193 196 193 180 163 159 160 157 165 171 168 153 160 171 186 216 342 303 301 307 305 304 299 296 293 291 292 291 294 298 303 309 308
262 295 300 264 252 252 192 177 180 149 189 193 198 192 193 185 175 179 181 176 166 168 183 187 193 269 309 309 308 309 309 313 321 329 331 329 322 318 314 313 312 318 323 323
235 251 237 281 291 230 209 196 187 170 178 192 204 202 194 185 188 197 184 173 175 184 191 227 292 323 330 336 339 334 338 357 357 355 353 345 341 339 339 318 305 313 324 323
262 302 301 290 282 224 213 193 191 192 182 183 187 206 193 179 162 161 167 172 181 198 223 288 314 335 350 357 359 1 360 1 1 1 359 358 356 352 342 336 340 337 326 328
297 303 287 291 288 222 211 201 186 183 163 180 179 179 175 169 164 168 170 183 196 231 301 33 54 38 36 30 22 9 358 1 3 3 0 359 353 351 347 346 342 339 333 323
336 296 271 280 253 206 193 192 186 174 173 173 170 166 165 162 163 168 165 144 101 49 6 319 302 339 33 25 17 10 6 357 355 351 350 347 345 340 341 337 336 332 330 326
324 309 265 222 207 195 184 181 178 165 170 167 164 166 165 166 159 146 130 110 84 38 13 346 304 295 352 359 357 357 354 350 347 344 341 340 342 339 333 327 328 329 333 335
333 295 226 202 200 190 185 175 164 165 162 162 163 164 159 160 159 153 145 74 4 349 340 326 303 296 300 311 330 336 331 332 331 331 331 326 327 330 337 333 331 329 325 324
327 323 259 244 199 177 167 167 167 165 169 168 163 159 159 162 164 175 179 308 324 328 324 321 300 302 309 312 304 311 314 316 319 318 318 318 311 312 318 321 322 322 319 320
303 328 288 221 192 183 177 176 170 172 172 170 167 164 165 165 176 177 209 309 312 315 331 301 294 301 302 306 302 301 301 305 307 314 308 309 306 307 309 310 307 309 313 314
335 357 146 172 197 196 193 181 178 174 169 166 162 150 181 176 186 201 246 284 291 303 304 305 298 297 302 298 298 295 292 292 299 305 302 304 300 304 306 305 305 310 315 318
33 76 356 158 181 204 202 182 171 157 157 158 168 152 166 187 205 244 267 290 7 335 320 328 320 322 316 300 291 290 290 280 277 286 294 303 301 305 309 312 318 321 322 324
72 151 154 155 153 160 159 165 175 170 161 145 135 155 194 216 248 254 279 304 320 316 310 310 314 327 327 307 303 298 295 286 280 283 293 293 300 312 314 318 325 324 327 331
112 137 121 142 149 153 149 153 163 161 155 152 151 174 228 229 271 284 303 309 307 306 303 313 333 333 322 317 310 299 286 287 281 279 292 294 306 313 320 321 324 332 337 338
175 213 222 192 137 139 170 168 172 170 166 148 151 276 266 277 287 310 312 306 291 286 304 333 340 335 324 325 323 318 292 278 276 287 295 294 301 313 330 337 334 337 341 344
211 263 235 231 244 229 216 190 184 181 193 233 168 295 291 314 317 308 302 319 300 290 310 329 342 338 325 335 347 345 313 282 280 297 293 319 328 319 324 330 336 334 341 344
186 237 261 243 192 202 200 176 169 169 174 196 252 276 286 281 302 333 340 343 336 317 312 321 341 350 348 359 9 344 321 307 307 305 259 305 324 329 327 331 326 328 336 343
214 234 216 202 189 147 142 179 194 186 214 252 279 274 290 301 310 310 311 326 337 340 329 316 323 341 348 335 348 343 341 336 320 302 275 295 316 340 339 337 335 328 331 340
Wind_Speed_850mb
9 8 2 6 9 15 13 10 13 14 17 14 21 24 21 24 28 27 31 35 34 32 30 30 31 24 14 1 18 28 33 37 51 50 26 18 19 4 7 20 27 23 19 17
6 10 8 8 7 11 11 7 10 8 15 5 12 28 25 34 38 40 37 38 41 41 39 43 42 42 36 25 13 27 49 50 37 25 33 51 19 18 15 38 37 32 40 39
10 5 8 5 12 10 8 5 11 9 9 4 6 10 22 36 46 58 53 49 44 37 39 42 38 37 36 28 33 31 22 15 6 8 15 13 33 47 59 46 42 36 31 29
8 3 7 10 10 9 8 7 9 13 11 12 10 16 23 23 37 46 47 43 38 33 29 31 35 34 31 24 22 16 7 11 18 16 18 17 43 63 55 54 54 45 35 32
5 6 10 5 8 10 12 13 10 11 1 5 19 20 14 24 32 40 31 32 23 22 33 37 38 51 36 43 31 35 19 19 21 25 30 10 18 23 28 31 32 30 29 26
5 6 12 15 3 9 5 9 15 19 15 19 24 6 4 32 32 28 29 25 26 31 33 33 40 46 32 36 28 29 18 13 15 16 5 11 17 18 23 28 29 27 27 28
7 9 14 10 2 10 11 14 14 28 28 39 11 5 7 32 32 35 31 28 28 28 30 31 29 28 27 29 24 19 8 7 9 5 10 16 19 21 24 27 29 30 32 31
4 2 12 2 3 13 9 1 3 18 31 40 24 7 26 36 38 31 32 28 27 27 23 26 21 16 15 13 9 4 5 6 6 7 13 20 23 25 30 33 34 35 37 35
14 10 7 12 6 10 8 5 3 15 28 37 27 18 38 41 35 28 27 28 25 30 30 25 21 13 10 8 4 2 4 8 9 12 15 20 24 27 30 30 31 32 33 35
6 5 9 12 9 9 8 4 5 7 25 32 29 29 41 39 40 37 34 33 32 24 29 24 19 12 2 3 5 10 15 20 23 24 24 24 23 24 24 24 27 30 33 37
9 13 16 17 18 10 5 4 4 13 28 34 28 35 36 38 38 34 29 28 31 27 22 15 9 4 7 12 19 25 26 22 20 20 21 24 26 22 20 20 26 31 36 38
9 7 8 19 16 22 20 19 18 21 32 32 29 31 34 36 32 31 34 33 27 20 11 5 7 11 17 19 19 18 17 18 23 27 29 31 35 35 25 25 25 23 26 32
15 28 32 24 17 31 28 27 25 20 22 28 30 32 39 36 37 34 30 28 19 12 7 6 9 10 11 12 13 11 13 19 25 29 31 35 38 43 47 41 36 23 23 29
22 21 14 16 11 24 31 27 27 21 22 23 31 36 39 40 39 34 26 18 11 5 3 1 3 9 15 19 18 17 18 21 28 32 34 37 34 38 40 42 46 46 31 32
22 16 34 27 13 16 25 29 31 31 28 31 36 41 42 44 35 26 18 12 7 7 7 5 5 3 12 19 23 24 22 25 29 33 35 36 39 38 37 40 43 41 44 41
42 29 23 27 26 29 33 32 32 32 32 40 44 38 34 23 20 21 18 16 10 12 15 9 5 5 8 16 21 23 23 24 29 35 37 38 40 42 41 40 41 42 39 39
39 21 26 35 41 41 39 35 32 31 45 43 40 32 27 24 19 16 11 4 12 20 21 17 11 11 15 18 21 24 26 28 32 37 39 37 35 38 37 40 44 49 55 57
25 29 37 35 47 46 46 40 35 35 39 37 36 31 25 20 14 16 9 5 14 18 18 10 10 19 25 29 29 30 31 35 40 45 45 44 42 43 46 49 52 59 64 69
20 11 11 18 40 42 44 43 40 34 35 38 32 24 17 19 14 16 8 10 18 18 11 17 22 28 26 21 25 29 35 40 44 46 45 45 45 48 52 53 54 59 65 69
10 4 10 22 22 37 34 34 32 32 32 32 28 21 14 20 22 16 8 13 15 15 14 19 23 27 31 35 39 43 47 45 42 46 41 42 43 42 46 49 52 56 61 61
10 7 3 8 24 26 29 30 34 36 34 23 14 13 20 19 14 10 10 9 7 12 13 16 24 33 45 52 52 52 57 52 42 39 41 43 41 42 46 42 44 49 50 58
4 9 16 19 24 27 31 31 25 23 23 20 15 11 10 9 7 6 10 13 14 19 22 22 26 44 50 46 47 46 40 35 36 35 42 35 36 41 34 35 39 41 48 47
5 4 8 11 13 15 20 16 19 20 21 18 11 5 4 5 10 13 17 19 18 20 22 28 37 48 40 40 44 45 42 37 33 32 33 34 32 27 29 34 32 39 44 46
9 15 6 3 3 5 7 9 15 23 19 14 4 1 5 9 12 18 18 20 23 26 23 30 41 46 40 38 42 37 26 23 23 28 34 29 19 18 25 30 31 37 44 47
20 14 10 7 8 6 5 10 21 27 10 13 10 6 10 12 15 13 23 26 23 23 26 30 46 49 37 38 32 23 13 15 19 25 12 13 15 20 27 33 35 37 41 44
18 20 14 9 7 6 16 15 15 15 18 8 6 6 8 10 12 15 17 23 24 26 31 29 36 42 27 32 32 22 14 15 17 22 18 14 16 24 30 34 37 36 37 38
17 13 15 14 12 8 13 16 13 11 8 5 3 7 15 20 22 23 27 28 26 26 25 26 28 35 31 29 28 22 15 29 23 20 18 14 15 21 27 29 33 31 31 32
Wind_Direction_850mb
265 270 247 224 205 176 181 195 174 251 202 260 210 212 161 144 143 124 113 108 105 104 106 105 93 80 63 59 215 205 198 168 112 81 64 114 80 36 284 289 284 280 276 280
243 330 298 245 212 170 178 156 286 331 273 271 232 185 153 144 139 132 127 119 113 111 108 95 93 89 86 86 132 176 157 153 129 72 6 19 291 294 290 288 297 271 272 277
254 263 314 307 219 214 163 151 153 205 239 170 252 209 167 151 149 146 143 136 127 116 102 100 98 102 87 75 105 126 140 148 246 288 356 243 210 203 242 280 282 278 271 270
213 292 209 237 283 231 146 174 231 281 279 214 199 174 187 186 170 157 148 139 132 119 127 122 123 122 112 139 144 136 102 95 104 106 128 209 249 240 260 265 265 269 273 272
159 208 289 131 199 176 172 245 205 232 219 167 143 142 172 183 174 157 151 148 149 129 124 110 113 86 104 117 102 100 129 109 97 90 78 142 208 228 245 257 263 271 277 276
139 179 220 241 110 79 85 271 206 193 192 168 151 184 167 162 155 151 139 123 118 120 108 109 92 93 111 96 121 120 133 118 71 57 25 258 255 256 261 267 273 278 282 288
178 216 282 239 245 142 147 241 185 211 213 180 190 177 168 151 143 137 132 116 107 98 96 89 89 97 109 119 139 143 129 63 59 29 299 288 289 288 285 285 291 291 291 293
85 163 273 2 148 177 231 178 239 237 221 188 191 138 150 157 148 142 134 124 112 105 102 111 114 127 140 163 158 104 51 40 18 314 293 291 293 293 291 289 288 288 291 293
177 221 272 303 267 297 275 11 322 218 209 205 197 190 174 162 161 151 145 140 136 138 150 139 145 168 158 148 105 7 344 320 305 304 290 284 284 285 285 284 286 287 288 290
25 267 258 281 292 334 156 143 46 221 194 193 196 193 180 163 159 160 157 165 171 168 153 160 171 186 216 342 303 301 307 305 304 299 296 293 291 292 291 294 298 303 309 308
262 295 300 264 252 252 192 177 180 149 189 193 198 192 193 185 175 179 181 176 166 168 183 187 193 269 309 309 308 309 309 313 321 329 331 329 322 318 314 313 312 318 323 323
235 251 237 281 291 230 209 196 187 170 178 192 204 202 194 185 188 197 184 173 175 184 191 227 292 323 330 336 339 334 338 357 357 355 353 345 341 339 339 318 305 313 324 323
262 302 301 290 282 224 213 193 191 192 182 183 187 206 193 179 162 161 167 172 181 198 223 288 314 335 350 357 359 1 360 1 1 1 359 358 356 352 342 336 340 337 326 328
297 303 287 291 288 222 211 201 186 183 163 180 179 179 175 169 164 168 170 183 196 231 301 33 54 38 36 30 22 9 358 1 3 3 0 359 353 351 347 346 342 339 333 323
336 296 271 280 253 206 193 192 186 174 173 173 170 166 165 162 163 168 165 144 101 49 6 319 302 339 33 25 17 10 6 357 355 351 350 347 345 340 341 337 336 332 330 326
324 309 265 222 207 195 184 181 178 165 170 167 164 166 165 166 159 146 130 110 84 38 13 346 304 295 352 359 357 357 354 350 347 344 341 340 342 339 333 327 328 329 333 335
333 295 226 202 200 190 185 175 164 165 162 162 163 164 159 160 159 153 145 74 4 349 340 326 303 296 300 311 330 336 331 332 331 331 331 326 327 330 337 333 331 329 325 324
327 323 259 244 199 177 167 167 167 165 169 168 163 159 159 162 164 175 179 308 324 328 324 321 300 302 309 312 304 311 314 316 319 318 318 318 311 312 318 321 322 322 319 320
303 328 288 221 192 183 177 176 170 172 172 170 167 164 165 165 176 177 209 309 312 315 331 301 294 301 302 306 302 301 301 305 307 314 308 309 306 307 309 310 307 309 313 314
335 357 146 172 197 196 193 181 178 174 169 166 162 150 181 176 186 201 246 284 291 303 304 305 298 297 302 298 298 295 292 292 299 305 302 304 300 304 306 305 305 310 315 318
33 76 356 158 181 204 202 182 171 157 157 158 168 152 166 187 205 244 267 290 7 335 320 328 320 322 316 300 291 290 290 280 277 286 294 303 301 305 309 312 318 321 322 324
72 151 154 155 153 160 159 165 175 170 161 145 135 155 194 216 248 254 279 304 320 316 310 310 314 327 327 307 303 298 295 286 280 283 293 293 300 312 314 318 325 324 327 331
112 137 121 142 149 153 149 153 163 161 155 152 151 174 228 229 271 284 303 309 307 306 303 313 333 333 322 317 310 299 286 287 281 279 292 294 306 313 320 321 324 332 337 338
175 213 222 192 137 139 170 168 172 170 166 148 151 276 266 277 287 310 312 306 291 286 304 333 340 335 324 325 323 318 292 278 276 287 295 294 301 313 330 337 334 337 341 344
211 263 235 231 244 229 216 190 184 181 193 233 168 295 291 314 317 308 302 319 300 290 310 329 342 338 325 335 347 345 313 282 280 297 293 319 328 319 324 330 336 334 341 344
186 237 261 243 192 202 200 176 169 169 174 196 252 276 286 281 302 333 340 343 336 317 312 321 341 350 348 359 9 344 321 307 307 305 259 305 324 329 327 331 326 328 336 343
214 234 216 202 189 147 142 179 194 186 214 252 279 274 290 301 310 310 311 326 337 340 329 316 323 341 348 335 348 343 341 336 320 302 275 295 316 340 339 337 335 328 331 340